User: anonymous   Login
Location: ????????
(37.9452°N, 23.1472°E)
Time: 07:28:27
(UTC+00:00)
Language:

Resurs 1-3 - Orbit

View from above orbital plane
View from above orbital plane
View from above satellite
View from above satellite

Ground track
Ground track

The orbit data is extracted from the following two-line orbital elements,

1 23342U 94074A   24166.91073514  .00001805  00000-0  23300-3 0  9992
2 23342  97.7285 200.4608 0001226  64.9669 295.1671 14.82153973595323
Epoch (UTC): 14 June 2024 21:51:27
Eccentricity: 0.0001226
inclination: 97.7285°
perigee height: 621 km
apogee height: 623 km
right ascension of ascending node: 200.4608°
argument of perigee: 64.9669°
revolutions per day: 14.82153973
mean anomaly at epoch: 295.1671°
orbit number at epoch: 59532

The dashed part of the orbit path shows where the satellite is in the earth's shadow,  

DLR